Total_Precipitation_Accumulation
1.38 1.48 1.51 1.31 1.05 0.93 0.93 0.95 0.96 0.96 1.00 1.03 0.96 0.97 1.07 1.09 1.03 1.13 1.25 1.33 1.42 1.50 1.50 1.56 1.63 1.62 1.79 1.84 1.95 2.09 2.17 2.15 1.94 1.71 1.59 1.61 1.68 1.69 1.64 1.51 1.48 1.49 1.43
1.25 1.22 1.06 0.88 0.77 0.74 0.71 0.69 0.70 0.74 0.73 0.74 0.72 0.72 0.82 0.93 0.94 1.03 1.11 1.09 1.17 1.28 1.37 1.41 1.40 1.41 1.54 1.62 1.72 1.81 1.98 2.06 1.98 1.82 1.68 1.58 1.50 1.57 1.71 1.72 1.67 1.56 1.55
0.84 0.87 0.82 0.73 0.68 0.66 0.64 0.62 0.60 0.63 0.67 0.66 0.62 0.65 0.70 0.77 0.91 0.96 0.97 0.96 0.96 0.99 1.06 1.10 1.14 1.25 1.42 1.47 1.49 1.61 1.79 1.88 2.00 1.91 1.80 1.70 1.53 1.49 1.68 1.65 1.68 1.86 1.74
0.63 0.66 0.67 0.65 0.64 0.66 0.67 0.64 0.60 0.61 0.64 0.64 0.59 0.59 0.68 0.77 0.83 0.91 0.92 0.88 0.86 0.90 0.94 0.94 0.92 0.99 1.13 1.29 1.37 1.55 1.74 1.92 2.03 2.00 1.96 1.87 1.75 1.62 1.69 1.82 1.86 1.92 1.91
0.53 0.54 0.61 0.63 0.63 0.61 0.62 0.59 0.56 0.57 0.58 0.58 0.56 0.60 0.64 0.67 0.70 0.86 0.88 0.86 0.89 0.85 0.86 0.89 0.91 0.93 0.97 1.04 1.05 1.25 1.47 1.75 1.92 2.02 2.02 2.01 1.91 1.81 1.70 1.85 1.92 2.03 2.11
0.42 0.43 0.52 0.58 0.59 0.62 0.59 0.55 0.53 0.53 0.55 0.56 0.55 0.59 0.58 0.54 0.76 0.87 0.85 0.87 0.93 0.97 0.93 0.91 0.88 0.87 0.98 0.98 0.97 1.01 1.18 1.38 1.59 1.71 1.77 1.80 1.84 1.91 2.00 2.00 1.96 2.00 2.07
0.40 0.42 0.48 0.51 0.49 0.53 0.54 0.50 0.47 0.51 0.54 0.56 0.57 0.58 0.55 0.54 0.60 0.63 0.71 0.81 0.94 0.97 0.92 1.00 1.03 0.93 0.97 1.01 1.07 1.02 0.97 1.04 1.24 1.45 1.54 1.57 1.66 1.73 1.97 2.00 2.00 2.01 1.89
0.37 0.39 0.45 0.46 0.46 0.44 0.46 0.44 0.43 0.47 0.51 0.53 0.62 0.63 0.55 0.50 0.54 0.53 0.60 0.69 0.81 0.85 0.85 0.93 1.16 1.18 1.08 1.09 1.16 1.21 1.09 0.94 0.99 1.07 1.25 1.42 1.50 1.67 1.98 2.19 2.16 1.93 1.82
0.38 0.36 0.38 0.41 0.44 0.45 0.40 0.39 0.40 0.45 0.49 0.48 0.53 0.58 0.53 0.50 0.53 0.52 0.56 0.63 0.72 0.74 0.76 0.89 1.03 1.13 1.12 1.13 1.09 1.15 1.18 1.05 1.03 1.10 1.09 1.19 1.37 1.55 1.83 2.11 2.20 2.12 1.92
0.38 0.39 0.40 0.39 0.38 0.40 0.40 0.40 0.41 0.47 0.51 0.54 0.54 0.51 0.49 0.48 0.53 0.54 0.58 0.58 0.62 0.59 0.64 0.83 1.05 1.02 1.02 1.08 1.09 1.18 1.28 1.12 1.04 1.15 1.12 1.14 1.18 1.43 1.82 2.01 2.13 2.14 2.01
0.45 0.48 0.48 0.43 0.43 0.48 0.51 0.49 0.49 0.49 0.52 0.54 0.54 0.51 0.48 0.49 0.56 0.56 0.57 0.54 0.58 0.60 0.63 0.74 0.81 0.84 0.87 0.98 1.06 1.09 1.26 1.19 1.19 1.32 1.34 1.28 1.32 1.37 1.52 1.70 1.94 2.09 2.02
0.47 0.50 0.50 0.49 0.49 0.53 0.59 0.59 0.59 0.59 0.59 0.61 0.61 0.59 0.56 0.53 0.53 0.56 0.58 0.58 0.62 0.61 0.66 0.69 0.68 0.71 0.76 0.82 0.84 0.91 1.11 1.24 1.31 1.44 1.47 1.41 1.36 1.39 1.41 1.46 1.61 1.75 1.77
0.48 0.50 0.51 0.52 0.52 0.52 0.55 0.60 0.63 0.62 0.60 0.62 0.62 0.61 0.63 0.59 0.55 0.58 0.60 0.60 0.63 0.61 0.63 0.70 0.73 0.75 0.77 0.75 0.76 0.85 1.02 1.20 1.38 1.44 1.36 1.28 1.30 1.35 1.37 1.48 1.55 1.62 1.67
0.54 0.55 0.54 0.53 0.53 0.53 0.55 0.55 0.56 0.58 0.57 0.58 0.60 0.59 0.58 0.57 0.50 0.50 0.55 0.59 0.64 0.66 0.68 0.73 0.77 0.78 0.74 0.71 0.79 0.90 1.04 1.24 1.35 1.30 1.26 1.17 1.20 1.34 1.41 1.42 1.44 1.44 1.50
0.59 0.58 0.56 0.53 0.52 0.53 0.51 0.51 0.53 0.53 0.58 0.63 0.64 0.66 0.63 0.57 0.59 0.66 0.64 0.58 0.57 0.61 0.69 0.76 0.80 0.86 0.87 0.90 1.00 1.07 1.06 1.10 1.18 1.11 1.18 1.14 1.14 1.25 1.31 1.29 1.32 1.27 1.21
0.56 0.57 0.54 0.57 0.56 0.53 0.51 0.53 0.60 0.60 0.66 0.63 0.63 0.63 0.60 0.59 0.64 0.62 0.64 0.66 0.65 0.70 0.77 0.80 0.88 0.97 1.02 1.07 1.13 1.11 1.07 1.06 1.09 1.10 1.14 1.15 1.11 1.14 1.18 1.21 1.28 1.31 1.30
0.53 0.51 0.50 0.54 0.56 0.55 0.55 0.56 0.59 0.58 0.58 0.57 0.55 0.55 0.56 0.58 0.56 0.55 0.58 0.63 0.66 0.73 0.75 0.84 1.04 1.07 1.02 1.05 1.10 1.10 1.01 0.94 0.96 0.98 0.99 1.01 1.02 1.04 1.09 1.13 1.19 1.25 1.27
0.59 0.63 0.57 0.52 0.54 0.57 0.58 0.57 0.57 0.59 0.61 0.59 0.53 0.52 0.53 0.55 0.55 0.54 0.58 0.59 0.57 0.59 0.60 0.71 0.89 0.94 0.97 1.00 0.98 0.95 0.90 0.86 0.88 0.89 0.87 0.87 0.89 0.96 1.00 1.05 1.07 1.08 1.13
0.52 0.57 0.59 0.58 0.57 0.55 0.55 0.53 0.53 0.53 0.56 0.60 0.58 0.57 0.60 0.60 0.60 0.60 0.60 0.54 0.52 0.54 0.58 0.67 0.75 0.83 0.87 0.88 0.88 0.86 0.85 0.85 0.84 0.84 0.86 0.87 0.88 0.91 0.94 0.93 0.98 1.06 1.05
0.47 0.56 0.60 0.57 0.56 0.58 0.56 0.55 0.57 0.56 0.57 0.58 0.55 0.57 0.61 0.60 0.56 0.56 0.55 0.55 0.57 0.59 0.58 0.60 0.66 0.71 0.76 0.80 0.81 0.83 0.84 0.87 0.85 0.83 0.82 0.85 0.88 0.91 0.92 0.93 0.96 0.99 0.97
0.48 0.51 0.59 0.56 0.54 0.57 0.61 0.61 0.64 0.64 0.62 0.62 0.62 0.65 0.68 0.62 0.60 0.60 0.61 0.61 0.62 0.63 0.62 0.60 0.61 0.66 0.73 0.81 0.87 0.87 0.85 0.88 0.90 0.88 0.89 0.90 0.92 0.94 0.93 0.95 0.97 0.98 0.96
0.55 0.52 0.51 0.53 0.55 0.56 0.60 0.61 0.63 0.63 0.62 0.64 0.66 0.68 0.70 0.64 0.63 0.65 0.65 0.63 0.61 0.63 0.66 0.67 0.67 0.69 0.73 0.78 0.84 0.89 0.90 0.93 1.00 1.04 1.04 1.02 1.04 1.04 1.02 1.02 1.03 1.03 1.01
0.57 0.58 0.56 0.54 0.53 0.57 0.59 0.58 0.61 0.63 0.64 0.66 0.65 0.65 0.63 0.62 0.62 0.62 0.64 0.64 0.63 0.65 0.68 0.72 0.72 0.71 0.73 0.77 0.82 0.87 0.89 0.88 0.97 1.09 1.16 1.14 1.12 1.12 1.11 1.09 1.06 1.08 1.09
0.52 0.57 0.56 0.53 0.53 0.54 0.55 0.57 0.59 0.59 0.59 0.62 0.63 0.63 0.63 0.64 0.64 0.64 0.67 0.67 0.68 0.68 0.70 0.75 0.75 0.72 0.70 0.74 0.79 0.84 0.89 0.94 1.00 1.08 1.16 1.20 1.14 1.10 1.11 1.10 1.06 1.05 1.11
0.48 0.52 0.54 0.55 0.56 0.57 0.58 0.61 0.61 0.60 0.58 0.59 0.60 0.60 0.60 0.62 0.64 0.67 0.71 0.74 0.75 0.74 0.74 0.76 0.78 0.79 0.75 0.74 0.78 0.81 0.94 1.03 1.03 1.04 1.09 1.18 1.15 1.10 1.09 1.09 1.07 1.07 1.11
0.47 0.48 0.51 0.54 0.55 0.56 0.58 0.62 0.64 0.64 0.63 0.62 0.63 0.66 0.66 0.66 0.66 0.66 0.70 0.73 0.76 0.74 0.72 0.72 0.73 0.74 0.75 0.73 0.74 0.84 0.92 0.91 0.96 1.06 1.09 1.16 1.24 1.21 1.17 1.16 1.13 1.14 1.14